Wind_Speed
8 11 13 14 14 12 10 5 2 2 8 11 14 18 21 24 27 30 34 33 33 35 31 31 33 32 30 27 29 26 23 21 20 19 15 13 14 14 16 15 15 15 16
11 12 13 14 15 15 14 13 11 9 5 5 11 12 14 17 20 22 26 30 32 35 35 34 36 39 34 31 31 30 25 23 25 23 20 15 13 15 15 16 16 16 15
11 11 12 12 13 15 15 14 13 13 13 11 0 7 12 15 17 18 19 19 22 23 26 34 36 39 41 38 40 38 35 29 29 25 20 14 16 21 18 18 17 18 17
10 9 9 10 10 12 14 14 14 14 14 11 4 6 7 11 12 14 16 18 20 22 23 24 29 39 46 44 44 42 43 34 33 32 33 19 14 18 15 21 20 18 18
11 9 8 8 8 10 11 11 12 12 14 13 12 9 10 13 15 17 20 22 24 25 23 24 26 35 45 48 49 47 46 45 36 36 36 25 20 18 16 24 24 28 20
10 7 5 5 6 9 12 13 15 16 17 16 13 14 15 16 19 20 21 22 22 25 26 28 28 30 37 46 49 52 49 48 44 37 37 37 33 25 19 15 24 27 23
7 4 5 5 6 9 11 15 17 17 19 19 19 18 18 19 19 20 22 26 26 28 27 26 30 33 35 38 45 51 54 53 47 46 43 39 35 26 25 19 24 22 26
5 3 4 6 9 10 12 15 16 18 17 19 20 20 21 20 22 21 20 20 23 28 26 30 29 32 34 38 43 50 55 56 55 53 47 46 45 40 34 26 29 17 20
3 2 4 6 8 9 11 11 13 14 14 15 17 20 22 23 23 24 25 25 25 27 28 31 31 31 34 36 39 47 54 58 57 56 55 56 55 48 45 39 33 28 20
1 2 4 7 9 11 11 12 13 16 19 19 20 20 23 24 24 24 24 25 27 29 30 30 29 30 33 35 38 43 48 54 54 55 57 57 53 48 46 42 40 39 29
3 5 8 9 10 11 13 15 16 20 24 23 24 29 26 24 24 24 25 26 27 29 32 31 30 30 32 35 39 43 45 50 52 53 54 54 52 50 47 46 45 40 41
6 9 11 12 13 15 17 20 21 25 24 22 24 24 23 22 23 23 24 25 26 27 29 31 31 30 33 36 40 41 44 45 49 51 50 50 50 48 47 45 48 46 42
7 8 9 11 13 14 17 19 21 22 21 21 21 21 20 18 21 22 22 21 22 24 26 28 29 27 28 31 37 43 47 47 48 46 46 46 45 43 39 39 42 41 38
7 9 11 12 14 16 18 20 21 21 21 22 20 17 16 19 19 18 16 17 18 17 18 21 21 21 22 26 28 32 37 44 44 39 36 33 37 37 33 32 31 32 31
7 10 12 14 16 19 20 21 20 20 20 20 14 16 18 16 14 13 13 14 14 13 17 16 17 15 16 19 22 24 28 29 30 30 28 26 23 23 26 26 28 28 29
7 7 10 12 15 18 20 20 21 21 19 16 16 14 13 12 11 10 9 9 9 8 9 10 9 10 9 8 7 11 11 11 14 14 17 16 19 18 16 16 18 19 22
4 7 10 14 16 18 19 20 21 16 14 13 11 10 10 9 8 8 6 5 2 2 3 5 6 4 2 2 5 2 3 6 9 13 13 14 15 16 19 19 19 19 17
4 6 10 14 17 19 22 19 17 17 15 9 8 9 7 6 6 4 4 2 2 2 2 2 3 3 1 1 2 4 8 11 9 11 13 12 12 13 12 11 12 12 13
6 8 11 15 18 21 22 17 14 18 12 8 8 7 5 4 4 4 2 1 3 4 3 2 1 2 3 1 1 3 5 7 9 9 10 12 11 10 8 9 11 12 13
8 10 12 14 17 20 20 14 13 16 10 6 10 8 10 6 8 6 3 2 3 2 2 1 1 1 0 3 3 3 6 10 13 12 12 13 8 9 11 10 10 11 11
12 12 13 15 16 17 19 15 14 16 13 12 12 13 11 12 10 7 5 4 4 3 2 2 3 3 2 3 4 5 7 9 12 12 12 11 11 11 11 12 11 11 14
16 17 18 16 15 14 21 18 13 14 17 16 16 16 14 13 9 7 8 7 6 5 5 5 5 4 5 5 7 7 6 8 9 12 13 13 12 12 13 13 11 11 13
14 14 14 14 13 12 12 12 14 12 13 13 13 13 13 11 11 10 10 9 8 7 8 9 10 9 8 6 6 7 8 10 10 9 11 12 13 12 12 10 11 12 12
14 13 13 15 16 15 15 17 16 13 9 12 11 13 12 10 11 11 10 10 10 11 11 12 13 13 12 12 11 11 12 11 14 17 15 13 13 12 11 12 13 12 11
17 16 16 17 16 15 15 16 17 13 11 14 12 12 12 12 12 12 11 11 12 10 10 11 12 13 13 14 12 15 17 17 19 18 16 14 13 12 13 13 13 12 11
17 17 17 16 15 14 15 16 16 14 14 17 13 14 15 14 14 13 13 14 13 12 12 10 10 10 9 9 12 14 15 16 18 18 18 15 12 11 11 11 11 11 11
Wind_Direction
87 68 65 67 68 76 72 81 72 280 249 263 265 263 260 257 258 257 256 259 263 268 262 252 242 246 238 228 227 218 207 203 199 185 183 187 195 194 193 196 197 199 206
106 85 73 68 68 75 72 63 59 48 30 244 255 273 279 278 280 273 266 265 264 263 263 257 249 250 241 231 226 221 207 205 198 192 185 188 200 204 201 199 199 200 201
117 96 81 72 69 77 74 66 57 51 43 45 200 286 287 295 289 290 290 290 284 278 272 263 249 244 244 234 235 232 218 206 204 201 196 188 214 193 203 202 200 202 199
121 107 91 76 63 64 61 57 50 37 30 35 358 300 285 289 287 280 275 283 280 275 274 272 267 251 245 239 240 234 229 213 211 208 208 216 211 187 185 205 205 204 200
134 119 93 73 50 42 35 25 17 10 7 0 343 326 301 293 292 288 281 283 279 273 268 266 263 257 251 247 241 236 230 226 217 214 209 215 204 203 199 189 200 203 202
131 112 85 53 23 5 357 349 343 337 332 330 323 312 305 297 290 284 282 285 282 279 276 276 269 264 261 253 245 240 235 227 222 220 214 213 206 207 202 205 195 199 196
127 100 52 24 358 351 343 339 333 329 322 316 309 300 296 292 291 288 281 277 275 283 282 277 274 273 264 261 253 241 240 236 223 221 218 218 216 208 210 206 184 190 204
113 76 15 356 346 335 328 331 325 318 311 306 301 297 294 293 289 286 282 281 280 275 275 283 281 274 270 265 258 249 243 238 234 225 214 213 220 217 206 198 188 171 205
110 50 347 334 328 326 325 320 315 308 304 299 297 297 294 291 293 294 294 294 293 288 283 275 278 281 277 271 264 255 246 237 232 227 225 226 229 230 224 219 217 229 200
180 307 323 324 330 327 322 317 312 310 309 300 298 295 290 284 286 290 295 298 299 296 288 281 276 275 277 274 268 259 253 243 236 232 232 231 228 229 225 226 228 227 224
271 307 324 332 327 321 320 318 313 313 312 304 298 299 293 281 278 283 290 294 297 299 296 286 279 278 281 279 273 261 255 247 238 233 232 229 228 223 223 227 228 229 227
330 336 335 336 331 329 321 319 314 313 305 298 294 289 282 271 271 277 284 290 290 291 288 285 283 285 283 278 273 266 255 246 238 234 228 226 222 226 224 225 231 221 214
330 326 320 320 320 317 316 312 308 307 296 296 285 277 272 263 269 274 280 286 287 286 287 282 283 283 277 274 268 256 255 245 235 232 222 222 226 228 222 223 217 217 217
315 311 311 312 310 309 308 308 308 308 300 299 283 270 261 263 268 277 285 291 290 291 294 295 294 289 286 277 266 256 246 237 223 224 222 224 229 224 222 214 215 214 213
304 311 309 312 311 310 311 311 309 309 304 297 273 259 262 267 270 279 286 293 295 302 301 297 305 308 300 285 271 256 240 231 217 205 209 207 209 218 222 223 218 213 211
308 314 315 321 324 320 313 311 312 311 303 287 267 270 264 264 275 292 299 292 287 296 316 327 331 334 308 287 261 226 178 192 203 201 205 198 205 216 215 209 198 194 203
300 327 330 335 328 329 320 311 310 311 295 281 268 261 257 262 273 295 292 298 322 17 41 36 15 20 208 193 309 292 168 184 199 189 188 184 185 193 197 200 195 195 188
298 317 322 326 334 326 322 310 308 313 299 274 261 252 230 254 271 264 289 339 52 57 95 72 0 329 360 22 54 102 156 156 168 179 183 185 194 190 175 162 158 158 165
291 301 315 324 330 333 330 308 306 319 303 263 247 225 227 231 209 211 230 224 154 142 142 151 321 317 311 104 121 155 164 163 176 179 168 157 156 154 161 175 173 171 173
279 294 308 316 324 333 337 318 311 310 283 269 237 241 293 219 197 173 160 185 148 165 158 185 206 251 194 126 132 152 171 167 170 167 155 149 169 182 156 164 177 176 173
283 289 304 310 317 327 333 319 307 290 270 271 251 252 250 213 200 198 193 201 237 230 246 224 201 188 179 166 151 170 179 174 164 163 171 165 159 162 167 160 162 162 161
284 285 294 298 306 318 330 334 308 281 273 279 271 250 230 215 205 221 230 222 237 243 249 232 222 216 191 173 171 174 173 177 188 180 171 163 161 166 166 168 162 156 157
290 289 286 285 295 299 311 324 322 309 276 266 258 234 218 222 220 235 232 233 233 221 228 230 211 207 211 201 184 182 179 179 183 177 160 156 155 160 159 153 153 158 168
280 279 283 286 292 292 288 306 311 302 275 250 238 230 225 226 237 241 237 245 255 249 234 224 214 208 201 200 194 190 185 179 162 161 159 162 161 165 164 160 165 173 177
276 278 279 284 286 290 277 296 304 301 269 237 227 231 231 232 237 242 245 252 248 239 246 235 224 215 212 218 207 200 188 183 179 173 165 166 166 168 170 176 183 187 184
274 273 276 276 280 282 277 280 284 271 277 240 223 223 231 233 232 236 238 237 231 225 221 209 218 212 214 216 204 197 199 198 195 186 176 178 176 176 180 182 183 182 181
Height
1484 1483 1481 1481 1481 1480 1481 1481 1482 1482 1483 1485 1485 1487 1488 1491 1493 1495 1497 1498 1500 1501 1502 1504 1505 1505 1508 1509 1509 1512 1517 1521 1524 1524 1527 1528 1530 1531 1532 1533 1535 1534 1536
1486 1485 1484 1483 1481 1481 1481 1482 1481 1481 1481 1481 1483 1483 1484 1485 1487 1488 1489 1491 1493 1494 1494 1497 1499 1499 1501 1503 1504 1506 1510 1514 1516 1518 1521 1524 1528 1527 1529 1530 1531 1531 1531
1486 1485 1484 1484 1483 1482 1481 1480 1481 1481 1480 1479 1481 1481 1481 1481 1482 1483 1483 1485 1485 1486 1486 1488 1491 1492 1492 1492 1495 1499 1501 1504 1506 1511 1514 1516 1513 1519 1522 1524 1525 1525 1526
1484 1485 1484 1483 1483 1482 1481 1480 1479 1479 1479 1480 1482 1481 1481 1481 1480 1478 1477 1477 1477 1477 1478 1481 1482 1483 1483 1486 1484 1488 1490 1496 1497 1500 1503 1505 1507 1508 1514 1518 1520 1521 1523
1481 1482 1483 1482 1482 1481 1479 1479 1478 1478 1478 1478 1478 1478 1479 1480 1478 1475 1474 1473 1471 1470 1471 1471 1472 1473 1473 1475 1474 1476 1480 1483 1488 1489 1494 1495 1498 1502 1502 1504 1508 1512 1516
1479 1481 1482 1481 1481 1480 1478 1478 1477 1475 1474 1473 1474 1473 1472 1471 1469 1469 1468 1468 1466 1464 1464 1465 1464 1464 1465 1465 1467 1468 1469 1473 1477 1481 1482 1484 1486 1491 1496 1498 1500 1505 1510
1477 1479 1479 1480 1480 1478 1477 1475 1474 1472 1471 1469 1468 1468 1466 1464 1463 1462 1461 1459 1457 1455 1454 1455 1456 1455 1455 1457 1457 1456 1457 1461 1465 1468 1471 1477 1479 1482 1487 1490 1492 1495 1500
1474 1476 1477 1476 1475 1475 1473 1470 1469 1467 1467 1465 1464 1462 1460 1458 1457 1456 1455 1453 1452 1451 1449 1447 1446 1447 1447 1446 1447 1446 1445 1446 1450 1453 1456 1459 1467 1472 1476 1479 1481 1490 1490
1470 1472 1473 1474 1473 1471 1469 1466 1464 1463 1462 1461 1460 1458 1456 1453 1451 1449 1447 1446 1445 1443 1441 1441 1438 1436 1437 1436 1436 1435 1434 1434 1437 1442 1448 1449 1452 1460 1463 1467 1471 1476 1484
1468 1468 1467 1466 1465 1464 1463 1462 1461 1460 1458 1456 1452 1450 1449 1448 1446 1443 1440 1438 1437 1435 1434 1431 1430 1428 1427 1427 1427 1427 1425 1425 1427 1432 1435 1439 1443 1450 1453 1459 1461 1469 1473
1464 1464 1463 1462 1461 1460 1458 1456 1454 1451 1449 1450 1446 1442 1441 1440 1438 1437 1435 1433 1430 1428 1425 1423 1421 1418 1418 1417 1416 1417 1416 1416 1417 1418 1424 1428 1433 1437 1444 1449 1454 1459 1464
1459 1458 1458 1457 1457 1456 1454 1451 1448 1446 1442 1440 1439 1435 1432 1433 1432 1429 1427 1425 1423 1421 1418 1416 1412 1410 1409 1409 1407 1407 1407 1406 1407 1408 1413 1419 1425 1429 1433 1440 1445 1448 1455
1452 1453 1454 1454 1453 1451 1450 1448 1446 1442 1438 1435 1433 1429 1427 1425 1425 1422 1420 1418 1416 1414 1412 1410 1407 1403 1401 1402 1401 1401 1399 1399 1399 1403 1403 1411 1417 1422 1426 1432 1438 1442 1446
1449 1450 1451 1450 1450 1449 1447 1445 1440 1436 1433 1430 1426 1424 1424 1420 1420 1418 1416 1415 1412 1410 1408 1406 1402 1398 1397 1396 1393 1393 1395 1393 1393 1397 1402 1409 1414 1418 1423 1428 1434 1438 1442
1445 1445 1448 1446 1445 1443 1441 1439 1435 1430 1426 1422 1420 1417 1416 1417 1416 1414 1412 1410 1409 1407 1405 1402 1399 1396 1392 1391 1390 1388 1387 1393 1388 1395 1401 1406 1414 1418 1425 1428 1431 1436 1438
1440 1441 1443 1441 1439 1438 1435 1432 1429 1423 1418 1415 1412 1411 1412 1413 1412 1410 1409 1408 1408 1404 1402 1401 1399 1396 1394 1393 1392 1391 1391 1396 1396 1395 1405 1406 1412 1418 1422 1427 1429 1433 1439
1437 1438 1439 1437 1435 1432 1429 1426 1422 1417 1413 1409 1408 1408 1409 1409 1408 1408 1408 1406 1405 1403 1402 1401 1400 1398 1398 1397 1397 1393 1391 1395 1401 1403 1404 1408 1414 1419 1423 1428 1431 1433 1438
1432 1433 1434 1433 1431 1428 1425 1421 1418 1411 1408 1407 1407 1407 1406 1407 1406 1405 1406 1405 1404 1403 1402 1402 1402 1401 1400 1399 1398 1397 1400 1401 1404 1407 1408 1408 1413 1421 1423 1426 1428 1431 1434
1429 1429 1429 1428 1426 1424 1420 1416 1412 1408 1407 1406 1406 1407 1406 1405 1405 1405 1405 1405 1405 1404 1403 1402 1402 1403 1402 1401 1400 1401 1401 1402 1407 1410 1411 1411 1418 1423 1424 1427 1430 1432 1436
1425 1426 1424 1424 1423 1420 1416 1411 1409 1406 1405 1404 1404 1404 1405 1404 1404 1404 1404 1404 1403 1404 1403 1403 1403 1403 1403 1403 1402 1403 1405 1406 1410 1413 1414 1416 1421 1426 1426 1431 1434 1436 1438
1420 1421 1419 1421 1419 1416 1412 1409 1405 1404 1404 1402 1402 1401 1401 1402 1402 1403 1402 1402 1402 1402 1402 1403 1404 1405 1405 1405 1405 1407 1409 1410 1413 1416 1418 1418 1423 1427 1431 1432 1436 1437 1441
1415 1415 1414 1416 1414 1411 1408 1404 1402 1400 1400 1399 1399 1398 1399 1400 1400 1400 1401 1401 1402 1402 1402 1403 1404 1405 1406 1407 1409 1410 1411 1414 1416 1418 1420 1422 1425 1430 1433 1435 1437 1439 1441
1410 1409 1410 1411 1410 1406 1404 1402 1399 1396 1395 1395 1395 1395 1396 1398 1398 1399 1399 1400 1400 1401 1402 1403 1404 1404 1405 1407 1409 1411 1413 1414 1417 1419 1421 1423 1427 1431 1433 1435 1438 1441 1445
1404 1405 1405 1405 1404 1403 1400 1398 1396 1393 1392 1392 1392 1393 1393 1394 1396 1397 1397 1398 1398 1399 1399 1400 1402 1403 1404 1406 1410 1411 1413 1415 1418 1422 1424 1427 1428 1430 1432 1436 1439 1443 1446
1399 1399 1399 1398 1398 1396 1394 1393 1392 1390 1389 1389 1389 1390 1391 1392 1392 1393 1395 1396 1397 1398 1398 1398 1399 1401 1402 1406 1408 1412 1414 1416 1418 1421 1425 1428 1429 1432 1435 1439 1442 1444 1446
1394 1394 1393 1393 1391 1391 1389 1388 1387 1387 1386 1388 1383 1386 1388 1389 1389 1390 1392 1393 1395 1395 1396 1397 1398 1399 1401 1404 1407 1410 1413 1416 1419 1423 1425 1429 1431 1433 1436 1438 1442 1444 1445